Regional Weather Roundup
Issued by NWS

Home | Current Version | Previous Version | Text Only | Print | Product List | Glossary On
Versions: 1 2 3 4 5 6 7 8 9 10 11 12 13 14 15 16 17 18 19 20 21 22 23 24 25 26 27 28 29 30 31 32 33 34 35 36 37 38 39 40 41 42 43 44 45 46 47 48 49 50
293
ASUS43 KDTX 250110
RWRMI
MICHIGAN HOURLY REGIONAL WEATHER ROUNDUP
NATIONAL WEATHER SERVICE DETROIT/PONTIAC MI
900 PM EDT SUN JUL 24 2016

NOTE: "FAIR" INDICATES FEW OR NO CLOUDS BELOW 12,000 FEET WITH NO
SIGNIFICANT WEATHER AND/OR OBSTRUCTION TO VISIBILITY.

MIZ047>049-052>055-059>063-066>070-074>076-081>083-250200-
SOUTHEAST LOWER MICHIGAN

CITY           SKY/WX    TMP DP  RH WIND       PRES   REMARKS
ADRIAN         PTCLDY    82  76  81 S5        29.91F
ALMA           CLOUDY    83  79  86 S5        29.84S HX  95
ANN ARBOR      PTCLDY    81  75  82 SE6       29.90F
BAD AXE        CLOUDY    80  71  73 S8        29.87S
CARO           CLOUDY    80  74  82 S6        29.85F
DETROIT CITY   PTCLDY    80  71  74 S8        29.91F
DETROIT        PTCLDY    79  71  76 SE7       29.91F
FLINT          CLOUDY    84  74  71 S6        29.88F HX  91
GROSSE ILE     PTCLDY    78  73  84 SE8       29.90F
HOWELL         MOCLDY    81  75  82 S5        29.90S

CITY           SKY/WX    TMP DP  RH WIND       PRES   REMARKS
JACKSON        CLEAR     82  77  84 S7        29.91R HX  90
LAMBERTVILLE   CLOUDY    82  74  79 S5        29.91F
LANSING        PTCLDY    83  75  77 S9        29.88S HX  90
LAPEER         CLOUDY    79  73  81 S8        29.89F
MASON          CLOUDY    82  75  81 CALM      29.89S
MONROE         CLOUDY    79  73  82 SE6       29.90F
MT. CLEMENS    MOCLDY    78  73  83 S8        29.88F
PONTIAC        CLOUDY    81  73  76 S6        29.90F
PORT HOPE        N/A     81  71  71 VRB5      29.84F
PORT HURON     MOCLDY    75  72  88 S5        29.90F
TRI CITIES     CLOUDY    82  77  84 S9        29.83F HX  90
MIDLAND        CLOUDY    82  75  78 S3        29.82S
TROY           CLOUDY    84  71  66 S7        29.92F
SAGINAW HB     CLOUDY    81  73  78 S8        29.84F
$$
MIZ043>046-050>051-056>058-064>065-071>073-077>080-250200-
SOUTHWEST LOWER MICHIGAN

CITY           SKY/WX    TMP DP  RH WIND       PRES   REMARKS
BATTLE CREEK   CLEAR     80  77  90 SW8       29.89S
BENTON HARBOR  CLOUDY    86  77  74 SW7       29.86R HX  97
BIG RAPIDS     MOCLDY    82  78  86 SW6       29.84R HX  91
COLDWATER      CLEAR     81  77  88 CALM      29.91R
FREMONT        MOCLDY    81  78  90 SW7       29.83R
HOLLAND        CLOUDY    85  77  77 SW13      29.85S HX  95
GRAND RAPIDS   CLOUDY    84  76  76 S12       29.85S HX  93
IONIA          FAIR      83  74  73 S8        29.85S HX  90
KALAMAZOO      CLEAR     83  76  79 S8        29.88R HX  91
LUDINGTON      MOCLDY    76  73  90 W9        29.82R
MARSHALL       CLEAR     82  78  86 S3        29.89R HX  92
MOUNT PLEASANT CLOUDY    84  76  77 S6        29.82F HX  93
MUSKEGON       CLOUDY    81  76  84 S13       29.83R
SOUTH HAVEN    CLOUDY    84  79  84 S6        29.86R HX  96
$$
MIZ016>042-250200-
NORTHERN LOWER MICHIGAN

CITY           SKY/WX    TMP DP  RH WIND       PRES   REMARKS
ALPENA         CLOUDY    79  71  76 S5        29.80F
BEAVER ISLAND  MOCLDY    71  70  96 SW12      29.78S
BELLAIRE       PTCLDY    79  74  86 CALM      29.79F
CADILLAC       CLOUDY    79  76  91 SW3       29.84S FOG
CHARLEVOIX     PTCLDY    77  74  90 SW7       29.81F
FRANKFORT      PTCLDY    74  70  88 SW3       29.81S FOG
GAYLORD        CLOUDY    78  73  84 SW9       29.83F
GRAYLING       CLOUDY    81  75  84 SW3       29.84S
HARBOR SPRINGS CLOUDY    74  73  96 CALM      29.78F FOG
HOUGHTON LAKE  CLOUDY    80  75  84 S5        29.84F
MANISTEE       MOCLDY    79  74  84 W9        29.81R
OSCODA         MOCLDY    78  70  74 SW10      29.82F
PELLSTON       CLOUDY    76  73  91 SW8       29.78F FOG
ROGERS CITY    CLOUDY    76  70  84 CALM      29.80F
TRAVERSE CITY  MOCLDY    82  76  81 SW3       29.77F
$$
MIZ007>008-015-250200-
EASTERN UPPER MICHIGAN

CITY           SKY/WX    TMP DP  RH WIND       PRES   REMARKS
KINROSS        CLOUDY    71  70  96 SW5       29.79S FOG
MACKINAC ISLAN CLOUDY    73  73 100 CALM      29.78S FOG
NEWBERRY       CLOUDY    72  70  96 SW5       29.78R FOG
S. S. MARIE    CLOUDY    72  70  93 SW6       29.77S
MUNISING         N/A     72  68  87 CALM      29.78R
$$
MIZ004>006-011>014-085-250200-
CENTRAL UPPER MICHIGAN

CITY           SKY/WX    TMP DP  RH WIND       PRES   REMARKS
MANISTIQUE     CLOUDY    69  68  97 SW3       29.78R FOG
ESCANABA         N/A    N/A N/A N/A MISG        N/A
MENOMINEE      PTCLDY    82  69  64 VRB3        N/A
$$
MIZ001>003-009>011-084-250200-
WESTERN UPPER MICHIGAN

CITY           SKY/WX    TMP DP  RH WIND       PRES   REMARKS
IRON MOUNTAIN  CLEAR     80  63  55 W5        29.81R
HOUGHTON       CLEAR     73  59  61 W16       29.80R
COPPER HARBOR    N/A     76  59  55 NW10G18   29.76R
IRONWOOD       PTCLDY    75  61  60 W8        29.84S
$$

ABBREVIATIONS USED IN REMARKS
   TC - TEMPERATURE IN CELSIUS
  WCI - WIND CHILL INDEX
   HX - HEAT INDEX
  VSB - VISIBILITY





USA.gov is the U.S. government's official web portal to all federal, state and local government web resources and services.